TimeCDT,TemperatureF,Dew PointF,Humidity,Sea Level PressureIn,VisibilityMPH,Wind Direction,Wind SpeedMPH,Gust SpeedMPH,PrecipitationIn,Events,Conditions,WindDirDegrees,DateUTC
12:53 AM,55.0,48.0,77,29.88,10.0,North,6.9,-,N/A,,Partly Cloudy,350,2013-04-12 05:53:00
1:53 AM,55.0,48.9,80,29.88,10.0,NNW,8.1,-,N/A,,Partly Cloudy,340,2013-04-12 06:53:00
2:53 AM,55.0,48.0,77,29.88,10.0,NNW,11.5,-,N/A,,Partly Cloudy,340,2013-04-12 07:53:00
3:53 AM,54.0,46.0,75,29.89,10.0,NNW,9.2,-,N/A,,Clear,340,2013-04-12 08:53:00
4:53 AM,54.0,45.0,72,29.91,10.0,North,11.5,-,N/A,,Partly Cloudy,350,2013-04-12 09:53:00
5:53 AM,54.0,45.0,72,29.92,10.0,North,9.2,-,N/A,,Partly Cloudy,350,2013-04-12 10:53:00
6:53 AM,54.0,46.0,75,29.94,10.0,North,11.5,18.4,N/A,,Scattered Clouds,360,2013-04-12 11:53:00
7:53 AM,57.0,46.9,69,29.96,10.0,North,11.5,19.6,N/A,,Scattered Clouds,10,2013-04-12 12:53:00
8:53 AM,59.0,46.0,62,29.97,10.0,North,15.0,-,N/A,,Partly Cloudy,10,2013-04-12 13:53:00
9:53 AM,62.1,48.0,60,29.99,10.0,North,15.0,-,N/A,,Partly Cloudy,10,2013-04-12 14:53:00
10:53 AM,63.0,48.0,58,30.00,10.0,North,12.7,-,N/A,,Partly Cloudy,10,2013-04-12 15:53:00
11:53 AM,66.0,48.0,52,30.00,10.0,North,11.5,-,N/A,,Scattered Clouds,350,2013-04-12 16:53:00
12:53 PM,68.0,48.9,50,29.99,10.0,NNW,9.2,17.3,N/A,,Scattered Clouds,340,2013-04-12 17:53:00
1:53 PM,69.1,46.0,44,29.98,10.0,North,9.2,17.3,N/A,,Scattered Clouds,350,2013-04-12 18:53:00
2:53 PM,72.0,48.0,43,29.95,10.0,NNW,8.1,21.9,N/A,,Scattered Clouds,330,2013-04-12 19:53:00
3:53 PM,72.0,46.9,41,29.93,10.0,NW,11.5,17.3,N/A,,Scattered Clouds,310,2013-04-12 20:53:00
4:53 PM,73.0,48.9,42,29.92,10.0,North,6.9,-,N/A,,Scattered Clouds,10,2013-04-12 21:53:00
5:53 PM,73.0,46.0,38,29.92,10.0,NNE,6.9,-,N/A,,Mostly Cloudy,30,2013-04-12 22:53:00
6:53 PM,71.1,46.0,41,29.93,10.0,North,3.5,-,N/A,,Mostly Cloudy,360,2013-04-12 23:53:00
7:53 PM,66.0,46.0,48,29.95,10.0,Calm,Calm,-,N/A,,Scattered Clouds,0,2013-04-13 00:53:00
8:53 PM,66.9,46.0,47,29.96,10.0,Calm,Calm,-,N/A,,Partly Cloudy,0,2013-04-13 01:53:00
9:53 PM,64.0,48.9,58,29.99,10.0,Calm,Calm,-,N/A,,Partly Cloudy,0,2013-04-13 02:53:00
10:53 PM,60.1,48.9,67,30.00,10.0,Calm,Calm,-,N/A,,Partly Cloudy,0,2013-04-13 03:53:00
11:53 PM,61.0,53.1,75,29.99,10.0,Calm,Calm,-,N/A,,Clear,0,2013-04-13 04:53:00